Location: La Oliva
(42.2466°N, 2.9955°E)
Time: 10:43:46
(UTC+00:00)

Cosmos 1766 Rocket - Pass Details

Date: 22 April 2021
Orbit: 604 x 633 km, 82.5° (Epoch: 10 May)

Event Time Altitude Azimuth Distance (km) Brightness Sun altitude
Rises 20:29:43 0° 359° (N) 2,870 7.6 -19.1°
Reaches altitude 10° 20:32:03 10° 6° (N) 1,963 6.5 -19.4°
Maximum altitude 20:36:10 41° 77° (ENE) 883 4.0 -20.0°
Enters shadow 20:36:22 41° 85° (E) 887 4.0 -20.0°
